Regional Weather Roundup
Issued by NWS Upton, NY

Current Version | Previous Version | Graphics & Text | Print | Product List | Glossary Off
Versions: 1 2 3 4 5 6 7 8 9 10 11 12 13 14 15 16 17 18 19 20 21 22 23 24 25 26 27

000
ASUS41 KOKX 261709
RWROKX

REGIONAL WEATHER ROUNDUP
NATIONAL WEATHER SERVICE NEW YORK NY
100 PM EDT MON JUN 26 2017

NOTE: "FAIR" INDICATES FEW OR NO CLOUDS BELOW 12,000 FEET WITH NO
SIGNIFICANT WEATHER AND/OR OBSTRUCTIONS TO VISIBILITY.

NYZ071-072-176-178-NJZ106-104-261800-
NEW YORK CITY METRO AREA

CITY           SKY/WX    TMP DP  RH WIND       PRES   REMARKS
Central Park   MOSUNNY   78  48  34 VRB5      30.04F
Bronx Bot Gard   N/A     77  50  38 NW1       30.04S
LaGuardia APRT NOT AVBL
Kennedy INTL   MOSUNNY   79  54  41 S16       30.03S
Breezy Point     N/A     70 N/A N/A SE9         N/A
Newark/Liberty MOSUNNY   79  47  32 SW12G20   30.01F
Teterboro      MOSUNNY   77  66  69 W6G16     30.00S
$$

NYZ177-179-078>081-261800-
LONG ISLAND NEW YORK

CITY           SKY/WX    TMP DP  RH WIND       PRES   REMARKS
Jones Beach      N/A     72 N/A N/A S8G15       N/A
Matinecock PT  NOT AVBL
Farmingdale    NOT AVBL
MacArthur/ISP  MOSUNNY   73  54  49 S14       30.02S
Shirley        NOT AVBL
Mt Sinai Harb    N/A    N/A N/A N/A W7          N/A
Westhampton    NOT AVBL
East Hampton   FAIR      74  54  49 SW6       30.01F
Montauk          N/A     75  57  53 S6        30.03F
$$

NYZ052-065-067-261800-
HUDSON VALLEY

CITY           SKY/WX    TMP DP  RH WIND       PRES   REMARKS
White Plains   MOSUNNY   73  48  40 NW10      30.02F
Larchmont Harb   N/A     73 N/A N/A SW10        N/A
Croton O-T Hud   N/A     77 N/A N/A NW7         N/A
Newburgh       MOSUNNY   73  54  49 NW12G18   30.02F
Montgomery     NOT AVBL
Poughkeepsie   NOT AVBL
Albany         PTSUNNY   70  53  54 NW5       29.99F
$$

NJZ001-105-106-008-010-013-015-019>022-104-261800-
NEW JERSEY

CITY           SKY/WX    TMP DP  RH WIND       PRES   REMARKS
Newark/Liberty MOSUNNY   79  47  32 SW12G20   30.01F
Teterboro      MOSUNNY   77  66  69 W6G16     30.00S
Caldwell       NOT AVBL
Somerville     NOT AVBL
Linden         FAIR      78  46  31 NW10G18   30.02F
Perth Amboy      N/A     73 N/A N/A W14         N/A
Sussex         NOT AVBL
Andover          N/A     74  50  42 VRB5      30.03F
Trenton          N/A     77  50  38 W3        30.03F
Millville      NOT AVBL
Atlantic City  MOSUNNY   81  51  35 SW9       30.05F
Wrightstown    PTSUNNY   77  47  35 W12       30.04F
Toms River     NOT AVBL
Belmar         NOT AVBL
$$

PAZ047>061-062-071-261800-
EASTERN PENNSYLVANIA

CITY           SKY/WX    TMP DP  RH WIND       PRES   REMARKS
Philadelphia   MOSUNNY   79  43  27 VRB6      30.04F
Allentown      NOT AVBL
Scranton       NOT AVBL
$$

CTZ002-004>006-009-010-012-RIZ004-006-007-MAZ004-011-015-261800-
SOUTHERN NEW ENGLAND
 IN CT

CITY           SKY/WX    TMP DP  RH WIND       PRES   REMARKS
Bradley INTL   PTSUNNY   73  49  42 W10       30.00S
Hartford       PTSUNNY   77  52  41 NW6       29.99F
Danbury        MOSUNNY   73  52  46 W10       30.02F
Wtrbury/Oxford PTSUNNY   72  48  43 NW6G17    30.03F
Bridgeport     PTSUNNY   79  54  41 SW16      30.00F
Meriden        SUNNY     75  49  39 VRB3      30.00F
New Haven      MOSUNNY   73  57  56 S14       30.00F
Chester        PTSUNNY   72  57  60 S9        30.01F
Groton         SUNNY     72  57  59 SW12      30.00F
Wilimantic     MOSUNNY   76  52  43 NW8       30.00F

 IN RI

CITY           SKY/WX    TMP DP  RH WIND       PRES   REMARKS
Providence     MOSUNNY   76  53  44 SW9       29.99F
Block Island   SUNNY     73  56  54 SW12      30.03S
Westerly       SUNNY     75  50  41 SW12      30.01F
 IN MA

CITY           SKY/WX    TMP DP  RH WIND       PRES   REMARKS
Boston         PTSUNNY   77  52  41 W16       29.97S
Worcester      PTSUNNY   68  50  52 W7        30.01F
Westfield      PTSUNNY   73  51  46 W8        30.00S
Provincetown   SUNNY     72  52  49 NW7       29.99S
Nantucket      SUNNY     71  55  56 SW12      30.00F
$$

ANZ330-335-338-340-345-350-353-355-261800-
COASTAL MARINE OBSERVATIONS


STATION/POSITION TIME  SKY/WX   TEMP    WIND        PRES    VSBY  WAVE
                                AIR SEA DIR/SP/G                  HT/PER
                 (UTC)          (F)     (DEG/KT/KT) (MB)    (MI)  (FT/S)
NY HARB ENTRANCE 1550            69 69  190/  6/  6 1017.3          2/ 7
20 S FIRE ISLAND 1650            69 71  230/  8/ 10 1017.0          2/ 7
GREAT SOUTH BAY  1630            70 76  220/ 14/ 17   N/A
23 SSW MONTAUK P 1550            66 66              1017.4          2/ 7
15 E BARNEGAT LI 1630               68                N/A           2/ 7
HUDSON CANYON    1550            69 69  320/  4/  6 1017.7          2/ 7
KINGS POINT      1624            73 65  350/  6/ 12 1016.3
EXECUTION ROCKS  1645            75     250/  2/  4   N/A
CENTRAL LI SOUND NOT AVBL
EASTERN LI SOUND NOT AVBL
ROBBINS REEF     1630                   250/ 12/ 14 1017.2
$$


>>>>>>>>>>>>>>>>>>>>>>>>>>>> KEY <<<<<<<<<<<<<<<<<<<<<<<<<<<
>                                                          <
>     SKY/WX - Sky Condition/Present Weather               <
>     TMP    - Temperature in Fahrenheit                   <
>     DP     - Dew Point in Fahrenheit                     <
>     RH     - Relative Humidity in Percent                <
>     WIND   - Direction (from) and Speed in MPH           <
>     PRES   - Mean Sea Level Pressure (inches of Hg)      <
>     WCI    - Wind Chill Index                            <
>     VSB    - VISIBILITY IN MILES                         <
>     HX     - HEAT INDEX                                  <
>     TC     - TEMPERATURE IN CELSIUS                      <
>     VRB    - VARIABLE WIND DIRECTION                     <
>                                                          <
>>>>>>>>>>>>>>>>>>>>>>>>>>>> KEY <<<<<<<<<<<<<<<<<<<<<<<<<<<




USA.gov is the U.S. government's official web portal to all federal, state and local government web resources and services.